Regional Weather Roundup
Issued by NWS

Home | Current Version | Previous Version | Text Only | Print | Product List | Glossary Off
Versions: 1 2 3 4 5 6 7 8 9 10 11 12 13 14 15 16 17 18 19 20 21 22 23 24 25 26 27 28 29 30 31 32 33 34 35 36 37 38 39 40 41 42 43 44 45 46 47 48 49

000
ASUS45 KCYS 010110
RWRWY

WYOMING REGIONAL WEATHER ROUNDUP
NATIONAL WEATHER SERVICE CHEYENNE WY
700 PM MDT TUE JUN 30 2015

NOTE:  "FAIR" INDICATES FEW OR NO CLOUDS BELOW 12,000 FEET
WITH NO SIGNIFICANT WEATHER AND/OR OBSTRUCTIONS TO VISIBILITY.

WYZ001-010200-
YELLOWSTONE NATIONAL PARK

CITY           SKY/WX    TMP DP  RH WIND       PRES   REMARKS
LK YELLOWSTONE   N/A     74  48  39 VRB5      30.30F
W YELLOWSTONE  NOT AVBL

$$
WYZ002>013-054>058-071-098>099-010200-
NORTHERN WYOMING

CITY           SKY/WX    TMP DP  RH WIND       PRES   REMARKS
JACKSON        FAIR      72  57  60 SE8       30.20F
CODY           FAIR      81  48  32 N7        30.06S
GREYBULL       FAIR      95  42  16 N13G24    29.92F HX  91
WORLAND        FAIR      78  61  55 SW12      29.98F
SHERIDAN       FAIR      86  53  32 NW10      29.95S
BUFFALO        FAIR      83  52  34 NW8       30.04F
GILLETTE       FAIR      86  53  32 NW10      29.96F
NEWCASTLE      NOT AVBL

$$
WYZ014>020-022>026-101>103-010200-
CENTRAL WYOMING

CITY           SKY/WX    TMP DP  RH WIND       PRES   REMARKS
BIG PINEY      FAIR      79  44  28 N28G39    30.24R
PINEDALE       NOT AVBL
DUBOIS         NOT AVBL
LANDER         PTSUNNY   77  50  38 N17G25    30.14R THUNDER
RIVERTON       PTSUNNY   78  50  37 E6        30.11R
CASPER         LGT RAIN  71  57  61 NW9       30.11R
DOUGLAS        LGT RAIN  76  61  59 NW5       30.07R

$$
WYZ021-027>030-104>119-010200-
SOUTHERN WYOMING

CITY           SKY/WX    TMP DP  RH WIND       PRES   REMARKS
EVANSTON       FAIR      86  44  23 W10       30.23S
FORT BRIDGER   CLEAR     90  37  15 NW14G23   30.24S
ROCK SPRINGS   LGT RAIN  68  58  70 S14       30.20S
RAWLINS        FAIR      76  53  44 NE20G25   30.19R
LARAMIE        PTSUNNY   65  56  72 S12       30.21S
CHEYENNE       TSTM      66  54  65 W22G36    30.17R
TORRINGTON     FAIR      88  54  31 N16       29.94R

$$


USA.gov is the U.S. government's official web portal to all federal, state and local government web resources and services.